Starlink 35346

operational
NORAD ID: 66180 Int'l Des: 2025-243 Owner: SPXS Country: US Constellation: starlink
LEOCIRCULAR

About Starlink 35346

Description loading...

Live Position

Loading 3D Globe...

Upcoming Passes

Altitude History

Altitude vs Time

uPlot chart will show altitude changes over time

Two-Line Element Set

1 66180U 25243D 25310.91031690 .00130859 00000-0 70946-3 0 9992
2 66180 53.1525 100.0045 0003453 40.4820 319.6458 15.79166930 1797
Epoch: Nov 6, 2025 • Age: 6 hours

Current Status

Altitude 346.5 km
Velocity 7.70 km/s
Sub-Earth Point -36.22°S, 145.1°W
Launch Date Oct 26, 2025
Age 11 days
Type internet

Technical Details

Classification Payload
Mass 575.00 kg
Dry Mass 530.00 kg
Total Mass 575.00 kg
Length 0.30 m
Diameter 4.10 m
Span 29.00 m
Shape Box + pan
Manufacturer SPXS
Bus Type Starlink V2MO
Phase Status In Orbit
Owner/State SPXS/US

Large Constellations

Loading constellations...